TimeCST,TemperatureF,Dew PointF,Humidity,Sea Level PressureIn,VisibilityMPH,Wind Direction,Wind SpeedMPH,Gust SpeedMPH,PrecipitationIn,Events,Conditions,WindDirDegrees,DateUTC
12:53 AM,-0.9,-4.0,87,29.92,10.0,Calm,Calm,-,N/A,,Clear,0,2013-12-21 06:53:00
1:15 AM,-0.9,-4.0,87,29.80,10.0,NNW,4.6,-,N/A,,Mostly Cloudy,340,2013-12-21 07:15:00
1:53 AM,1.9,-0.9,88,29.91,7.0,Calm,Calm,-,N/A,,Overcast,0,2013-12-21 07:53:00
2:40 AM,-0.0,-4.0,83,29.82,9.0,Calm,Calm,-,N/A,,Partly Cloudy,0,2013-12-21 08:40:00
2:53 AM,-4.0,-7.1,87,29.93,9.0,NNW,4.6,-,N/A,,Partly Cloudy,330,2013-12-21 08:53:00
3:08 AM,-0.9,-4.0,87,29.82,4.0,Calm,Calm,-,0.00,Snow,Light Snow,0,2013-12-21 09:08:00
3:48 AM,-5.8,-7.6,92,29.81,9.0,Calm,Calm,-,0.00,,Scattered Clouds,0,2013-12-21 09:48:00
3:53 AM,-5.1,-8.0,87,29.92,10.0,Calm,Calm,-,0.00,,Partly Cloudy,0,2013-12-21 09:53:00
4:53 AM,-7.1,-9.9,87,29.93,10.0,Calm,Calm,-,N/A,,Clear,0,2013-12-21 10:53:00
5:53 AM,-11.0,-15.0,83,29.95,9.0,Calm,Calm,-,N/A,,Clear,0,2013-12-21 11:53:00
6:30 AM,-11.0,-16.1,78,29.83,10.0,Calm,Calm,-,N/A,,Mostly Cloudy,0,2013-12-21 12:30:00
6:53 AM,-8.0,-11.9,83,29.98,6.0,Calm,Calm,-,N/A,,Overcast,0,2013-12-21 12:53:00
7:01 AM,-9.0,-13.0,83,29.85,8.0,Calm,Calm,-,N/A,,Overcast,0,2013-12-21 13:01:00
7:53 AM,-5.1,-9.0,83,30.00,7.0,Calm,Calm,-,0.00,,Overcast,0,2013-12-21 13:53:00
8:53 AM,-2.0,-6.0,83,30.02,5.0,Calm,Calm,-,0.00,,Overcast,0,2013-12-21 14:53:00
9:53 AM,1.9,-0.9,88,30.03,4.0,North,3.5,-,N/A,,Overcast,10,2013-12-21 15:53:00
10:53 AM,6.1,3.0,87,30.06,4.0,NNE,5.8,-,0.00,Snow,Light Snow,20,2013-12-21 16:53:00
11:53 AM,7.0,3.9,87,30.06,4.0,Calm,Calm,-,0.00,Snow,Light Snow,0,2013-12-21 17:53:00
12:39 PM,7.0,3.0,84,29.93,5.0,NNE,5.8,-,0.00,Snow,Light Snow,20,2013-12-21 18:39:00
12:53 PM,7.0,3.9,87,30.04,5.0,NE,3.5,-,0.00,Snow,Light Snow,50,2013-12-21 18:53:00
1:53 PM,8.1,3.0,80,30.06,5.0,NNW,3.5,-,0.00,Snow,Light Snow,340,2013-12-21 19:53:00
2:53 PM,8.1,1.9,76,30.07,10.0,NE,6.9,-,0.00,,Overcast,40,2013-12-21 20:53:00
3:53 PM,7.0,3.0,84,30.12,10.0,NE,5.8,-,N/A,,Overcast,40,2013-12-21 21:53:00
4:53 PM,7.0,3.0,84,30.13,10.0,NNE,8.1,-,N/A,,Overcast,20,2013-12-21 22:53:00
5:38 PM,7.0,1.9,80,29.98,10.0,North,9.2,-,N/A,,Overcast,10,2013-12-21 23:38:00
5:53 PM,7.0,1.9,80,30.11,10.0,NNE,8.1,-,N/A,,Overcast,20,2013-12-21 23:53:00
6:10 PM,7.0,1.9,80,29.98,10.0,NNE,9.2,-,N/A,,Overcast,20,2013-12-22 00:10:00
6:43 PM,7.0,1.9,80,30.00,10.0,NNE,8.1,-,N/A,,Overcast,30,2013-12-22 00:43:00
6:53 PM,7.0,1.9,80,30.12,10.0,North,8.1,-,N/A,,Overcast,10,2013-12-22 00:53:00
7:30 PM,6.1,1.9,83,30.00,10.0,NNE,5.8,-,N/A,,Overcast,20,2013-12-22 01:30:00
7:53 PM,7.0,1.9,80,30.15,10.0,NNE,4.6,-,N/A,,Overcast,20,2013-12-22 01:53:00
8:44 PM,7.0,1.9,80,30.02,10.0,NNE,4.6,-,N/A,,Overcast,20,2013-12-22 02:44:00
8:53 PM,7.0,1.9,80,30.14,10.0,North,6.9,-,N/A,,Overcast,10,2013-12-22 02:53:00
9:53 PM,5.0,1.0,84,30.12,10.0,NNW,8.1,-,N/A,,Overcast,340,2013-12-22 03:53:00
10:18 PM,3.9,-0.0,84,30.00,10.0,North,6.9,-,N/A,,Scattered Clouds,350,2013-12-22 04:18:00
10:33 PM,3.9,-0.0,84,30.00,10.0,North,8.1,-,N/A,,Mostly Cloudy,350,2013-12-22 04:33:00
10:53 PM,3.9,-0.0,84,30.11,10.0,North,12.7,-,N/A,,Overcast,350,2013-12-22 04:53:00
11:53 PM,3.9,-0.9,80,30.12,10.0,North,10.4,-,N/A,,Overcast,10,2013-12-22 05:53:00